Retour au catalogue

COSMOS 1275 DEB

ActifPO
NORAD 12759·DEBRIS·🇷🇺 Russia

Lancé Jun 4, 1981 depuis Plesetsk Cosmodrome

Loading…

Prochains Passages (prochaines 24 heures)

TLE

FraisSource: Space-Track

Époque: Sep 14, 2026, 05:58 UTC

1 12759U 81053DC  26257.24898920  .00000564  00000-0  33709-3 0  9995
2 12759  82.8647 344.0995 0043696 353.0793  35.5485 14.05148483294769

Suivez COSMOS 1275 DEB en temps réel avec AllMySat

Download on the App Store